Weather in Bol'shoy Dvor

Russia / Vologda Oblast     59°24′08″N   37°59′45″E
temp.,
°C
wind,
m/s
gust,
m/s
humid.,
%
clouds,
%
prec.,
mm/h
press.,
hPa
HPBL,
m
22 april, thu
thu2200:00+1s41098100 0.1 1006684
03:00+2ssw41096100 0.1 1007538
06:00+3s4109598 0.1 1007672
09:00+6s488299 0.1 1008533
12:00+4ssw41095100 1.2 1009751
15:00+9sw477493 1.4 10091119
18:00+9ssw377467 0.1 1011445
21:00+5sse27925 0.1 1012132
23 april, fri
fri2300:00+4sse310915 0.0 1012195
03:00+4sse3109518 0.0 1012221
06:00+5sse4129417 0.0 1011344
09:00+9sse5118191 0.0 1011599
12:00+12s7126944 0.0 10101331
15:00+13s61468100 0.5 10091797
18:00+5w4891100 0.5 1011433
21:00+4s2393100 3.6 1012341
24 april, sat
sat2400:00+4sse139599 1.2 1011273
03:00+4se1295100 1.7 1010504
06:00+4nw2298100 1.3 1008145
09:00+5nw0496100 1.6 1005337
12:00+6sw2592100 0.1 1004480
15:00+2w3797100 0.8 1005351
18:00+3wnw2898100 0.7 1006379
21:00+2wnw2897100 0.8 1006500
25 april, sun
sun2500:00+2wnw3898100 1.0 1005490
03:00+1wnw3999100 5.1 1004332
06:00+1wnw41198100 3.2 1003380
09:00+1wnw51297100 5.7 1002550
12:00+2w51196100 1.0 1003868
15:00+2w51092100 2.1 1004917
18:00+2w41093100 0.4 1004926
21:00+2w41096100 0.5 1005883
26 april, mon
mon2600:00+2wsw41093100 0.0 1005677
03:00+1wsw41191100 0.0 1005524
06:000wsw41093100 0.0 1006471
09:00+3wsw588299 0.0 1006758
12:00+6wsw5767100 0.1 10061636
15:00+7wsw4762100 0.2 10071951
18:00+6wsw3768100 0.1 1006489
21:00+2wsw248673 0.1 100768